Wind_Speed
54 57 60 62 63 65 67 70 74 75 74 74 77 79 81 83 86 90 95 100 105 110 114 115 114 108 102 95 90 88 88 91 94 98 102 107 112 117
58 60 62 63 64 68 72 74 75 76 76 76 79 82 86 90 96 102 107 112 115 114 110 102 93 83 73 67 64 64 64 66 69 74 79 84 90 96
60 62 63 66 69 72 73 74 76 77 78 78 82 87 93 100 106 112 114 111 104 94 84 74 65 59 55 53 51 50 51 52 53 55 58 63 69 76
62 64 67 69 71 72 74 76 77 80 83 84 88 95 102 108 111 109 101 90 78 68 60 55 52 49 46 44 43 43 44 45 46 46 47 49 51 56
65 67 69 70 72 74 76 78 81 85 89 93 97 103 107 107 101 90 76 65 58 53 50 49 46 43 42 42 41 41 41 42 43 44 43 43 43 45
67 68 70 72 74 76 78 82 87 91 97 102 106 106 103 93 80 67 55 50 47 46 46 44 41 41 42 43 43 43 42 41 41 42 42 41 41 41
68 69 71 73 75 79 84 88 94 99 104 107 106 98 86 71 59 50 43 40 39 42 41 40 40 40 42 44 45 47 46 44 41 41 42 41 41 41
69 70 72 75 79 84 89 95 100 105 106 102 92 79 65 53 44 39 36 35 34 38 38 37 39 40 42 43 44 44 44 43 41 40 39 37 36 36
70 72 75 79 84 89 95 100 103 102 94 84 72 59 49 41 37 35 34 32 33 36 36 34 37 39 39 39 39 39 39 37 35 33 32 31 30 29
71 75 80 85 91 96 100 102 97 86 75 64 55 46 40 38 37 34 32 31 31 35 36 35 35 36 36 34 32 32 30 27 26 26 26 26 26 26
75 80 85 90 96 100 100 94 81 67 56 49 43 40 39 38 37 35 34 33 31 33 35 35 34 33 32 28 26 25 24 23 22 22 23 24 25 26
79 85 90 96 99 98 89 75 60 50 45 42 41 40 39 38 38 38 37 35 33 30 31 31 31 27 24 25 23 23 25 26 25 24 23 24 25 26
84 89 95 98 94 84 70 56 47 42 40 39 38 38 37 38 38 38 38 37 34 30 28 27 25 23 19 18 21 23 25 26 27 27 26 25 24 24
89 94 95 90 78 63 52 44 40 39 38 37 36 36 36 36 36 36 37 36 35 30 26 24 22 19 17 16 18 22 25 28 28 27 26 26 25 23
92 92 85 72 58 47 41 38 37 36 35 34 34 34 35 35 34 33 33 33 33 31 26 22 20 18 16 15 17 21 24 26 27 27 26 26 24 23
88 79 65 53 44 39 37 35 33 33 32 32 32 32 32 32 32 31 29 29 28 29 28 23 19 17 15 16 18 22 26 27 26 26 25 24 23 24
76 61 49 42 38 35 33 32 31 31 31 31 31 31 30 30 30 29 28 26 25 23 24 24 21 17 15 15 18 23 27 29 27 25 22 20 22 24
58 45 38 35 32 30 29 30 30 30 31 31 31 30 30 29 28 28 26 25 23 22 20 20 19 17 15 15 18 22 26 27 25 22 19 18 20 23
42 35 31 30 29 28 27 28 30 31 31 31 30 30 30 29 27 26 25 24 22 21 18 16 15 13 12 14 18 22 24 23 22 19 16 17 19 23
30 27 26 25 25 26 26 28 30 31 31 30 30 29 29 28 27 26 25 22 20 19 16 13 11 9 8 9 13 18 20 20 19 17 15 16 20 24
22 21 21 22 23 24 25 27 29 30 30 30 30 30 29 29 27 25 24 21 19 16 12 10 7 5 5 8 12 15 16 17 17 16 14 15 19 22
17 18 19 20 22 24 25 27 29 30 30 30 30 29 29 28 27 24 22 19 16 12 8 6 4 3 4 7 11 13 14 15 15 14 14 13 15 18
14 16 17 20 22 24 26 28 29 30 31 30 30 30 29 28 27 24 21 16 12 7 5 3 2 2 4 7 10 11 12 12 14 13 13 13 14 18
Wind_Direction
294 295 296 297 297 297 297 297 298 298 298 299 299 298 297 297 297 297 296 296 295 294 292 291 290 288 286 284 282 279 276 273 270 267 265 262 260 258
296 298 298 298 298 298 299 300 300 301 301 301 300 300 300 301 300 299 299 299 298 296 295 293 292 291 289 287 285 282 280 277 275 271 267 264 260 258
299 299 299 299 300 301 302 302 302 302 302 302 302 302 302 302 301 302 301 300 298 296 295 295 295 294 292 291 288 286 285 285 283 280 275 270 265 260
300 301 301 302 303 303 304 304 303 303 303 303 303 303 303 303 304 303 302 300 298 297 296 296 297 296 295 293 292 291 291 291 290 288 284 278 271 263
302 303 304 304 305 305 305 305 305 305 305 305 305 305 305 305 305 303 301 298 297 297 297 298 299 297 296 296 296 295 295 295 293 291 288 284 277 268
304 305 306 305 305 306 306 307 307 306 306 306 307 307 308 307 304 302 300 298 298 297 298 300 300 299 299 299 301 301 301 297 292 288 285 282 277 270
306 306 306 306 307 308 308 308 308 307 308 308 309 309 308 306 304 301 300 298 298 298 299 302 301 301 300 301 303 304 303 299 292 285 281 277 274 269
306 307 307 308 309 309 309 308 309 309 309 310 310 309 308 305 303 301 299 298 297 297 301 303 302 302 302 304 305 305 302 298 291 287 282 277 273 268
308 309 309 309 309 309 309 310 310 311 310 310 309 309 308 304 303 301 299 298 298 298 301 303 303 304 306 308 309 309 307 302 296 290 284 281 277 271
310 310 310 310 310 310 311 312 312 312 310 309 310 310 307 305 304 302 300 299 300 300 303 306 306 308 311 315 318 321 320 315 308 301 295 290 283 275
310 310 310 311 311 312 313 314 313 312 310 309 310 309 308 307 306 305 303 303 302 301 303 306 308 311 315 321 326 331 334 331 323 314 305 298 291 283
310 311 312 313 313 314 315 315 314 311 310 309 309 309 309 309 308 307 306 305 303 302 301 304 306 310 314 320 326 331 333 333 331 324 315 306 298 290
312 313 313 314 315 316 316 315 314 312 310 310 309 309 308 308 307 306 306 305 305 304 302 302 304 309 313 317 323 329 332 332 331 328 324 318 310 300
314 315 315 316 317 316 316 315 315 314 313 312 311 309 308 307 307 307 306 305 305 304 302 301 302 305 309 315 320 325 328 330 330 330 327 322 316 308
315 316 317 317 317 318 317 317 317 317 316 315 314 312 310 308 308 306 304 305 305 304 303 301 301 303 305 310 319 324 328 329 328 327 325 323 318 313
317 317 317 317 318 319 319 320 321 321 321 320 319 317 315 312 310 308 305 303 303 303 303 302 299 298 299 308 319 326 331 333 331 328 325 324 323 320
318 317 316 318 320 322 323 325 326 327 327 327 325 324 322 320 317 314 310 306 304 301 299 300 300 296 294 302 316 327 334 335 333 331 331 332 334 332
318 317 318 320 323 325 327 328 330 330 330 329 328 327 325 324 321 319 316 312 307 305 300 297 298 299 299 307 321 332 336 337 338 337 339 345 348 345
318 319 321 325 328 330 331 332 332 332 330 329 328 327 327 325 323 321 318 315 312 309 306 299 295 294 295 307 322 334 341 345 349 351 354 359 3 1
321 324 328 331 334 335 336 336 335 335 334 332 331 331 330 329 326 323 320 317 314 312 310 305 298 293 293 312 328 337 346 354 0 6 11 17 17 14
328 334 338 341 343 344 344 343 341 340 339 339 337 336 335 333 331 328 324 320 318 316 313 309 304 300 306 329 344 350 356 4 11 19 24 26 26 25
341 347 350 353 355 354 352 350 349 348 347 346 344 342 341 340 338 335 331 326 324 323 323 322 321 320 333 350 358 2 7 12 19 28 30 32 34 36
354 359 2 3 3 1 359 358 357 356 355 353 351 349 348 346 343 339 337 336 337 342 354 13 34 37 23 13 10 15 21 24 27 32 33 37 44 48
Height
5658 5652 5646 5640 5633 5626 5619 5611 5604 5598 5592 5582 5571 5560 5550 5541 5532 5522 5513 5503 5492 5479 5466 5455 5443 5430 5419 5410 5402 5395 5390 5385 5381 5379 5379 5380 5383 5389
5645 5638 5631 5624 5617 5609 5602 5593 5584 5576 5570 5563 5550 5538 5526 5515 5502 5490 5479 5467 5453 5437 5423 5412 5402 5394 5385 5378 5371 5365 5359 5354 5349 5345 5343 5342 5343 5346
5631 5624 5616 5608 5600 5592 5584 5575 5565 5556 5549 5543 5529 5517 5503 5489 5474 5459 5443 5428 5414 5400 5390 5382 5376 5370 5363 5357 5351 5345 5340 5334 5328 5322 5317 5314 5312 5315
5616 5609 5601 5592 5583 5574 5565 5555 5546 5535 5526 5519 5509 5494 5478 5460 5444 5427 5410 5394 5384 5376 5369 5364 5359 5353 5347 5342 5336 5331 5325 5319 5312 5305 5299 5295 5292 5290
5601 5593 5585 5575 5565 5556 5546 5536 5526 5515 5502 5492 5483 5468 5451 5431 5414 5398 5384 5372 5365 5359 5354 5349 5344 5338 5333 5328 5323 5318 5313 5306 5299 5292 5286 5280 5276 5274
5586 5577 5568 5558 5548 5538 5528 5517 5505 5492 5478 5464 5452 5437 5420 5402 5386 5376 5368 5358 5352 5346 5341 5337 5332 5327 5321 5315 5309 5304 5299 5293 5286 5279 5273 5268 5264 5262
5571 5561 5552 5542 5531 5520 5509 5496 5481 5466 5451 5436 5422 5407 5392 5379 5368 5360 5354 5348 5342 5335 5331 5327 5321 5316 5310 5304 5297 5291 5284 5277 5271 5265 5260 5255 5252 5250
5556 5546 5536 5526 5515 5503 5489 5473 5456 5439 5422 5407 5393 5380 5371 5361 5354 5348 5343 5339 5334 5328 5322 5318 5311 5305 5299 5294 5287 5279 5271 5263 5257 5251 5247 5243 5240 5238
5540 5530 5520 5509 5496 5482 5468 5451 5433 5412 5394 5381 5371 5362 5355 5349 5344 5339 5334 5329 5324 5317 5313 5310 5303 5296 5290 5284 5276 5268 5259 5251 5245 5241 5237 5234 5231 5229
5525 5514 5502 5489 5474 5460 5445 5429 5409 5391 5376 5364 5356 5350 5343 5338 5334 5329 5325 5321 5316 5309 5303 5299 5293 5287 5281 5274 5267 5259 5251 5244 5238 5234 5230 5227 5224 5222
5510 5498 5484 5470 5454 5438 5422 5406 5390 5374 5362 5353 5346 5341 5335 5329 5323 5319 5315 5311 5308 5302 5295 5289 5284 5278 5272 5267 5260 5253 5246 5241 5235 5230 5226 5222 5218 5216
5495 5480 5465 5448 5431 5413 5397 5384 5373 5363 5353 5345 5339 5332 5326 5320 5314 5309 5304 5300 5297 5294 5288 5282 5276 5271 5266 5260 5255 5249 5242 5236 5231 5226 5221 5216 5211 5207
5475 5460 5444 5426 5409 5393 5379 5369 5360 5353 5346 5338 5331 5325 5319 5313 5307 5301 5295 5290 5286 5283 5279 5275 5269 5264 5259 5256 5250 5244 5238 5232 5226 5220 5214 5209 5204 5199
5455 5439 5422 5406 5391 5378 5368 5359 5352 5344 5337 5331 5324 5317 5311 5305 5299 5293 5286 5281 5276 5273 5270 5266 5262 5258 5254 5250 5245 5240 5233 5226 5220 5213 5207 5202 5196 5191
5435 5418 5402 5388 5377 5367 5359 5352 5345 5337 5331 5324 5317 5310 5303 5297 5291 5286 5279 5274 5268 5264 5261 5258 5255 5252 5249 5245 5241 5236 5230 5223 5215 5208 5202 5195 5190 5184
5417 5401 5387 5376 5367 5360 5352 5345 5338 5331 5324 5318 5310 5303 5296 5289 5283 5278 5273 5268 5263 5257 5253 5251 5248 5246 5243 5240 5235 5230 5224 5217 5211 5204 5197 5190 5184 5177
5400 5388 5377 5368 5360 5352 5345 5338 5332 5325 5318 5311 5304 5297 5290 5283 5277 5271 5266 5261 5256 5253 5249 5245 5242 5240 5238 5235 5231 5226 5219 5212 5205 5199 5192 5186 5179 5172
5386 5377 5369 5362 5354 5347 5340 5334 5327 5320 5313 5306 5299 5292 5285 5278 5272 5265 5260 5255 5250 5247 5243 5240 5237 5236 5234 5231 5227 5222 5216 5209 5202 5195 5188 5182 5176 5168
5377 5369 5363 5356 5349 5343 5336 5330 5323 5316 5309 5302 5294 5287 5280 5273 5267 5261 5255 5250 5245 5241 5238 5236 5234 5232 5230 5228 5224 5219 5214 5207 5200 5193 5187 5181 5174 5167
5370 5364 5358 5352 5345 5339 5333 5326 5320 5312 5305 5297 5290 5282 5275 5268 5262 5256 5250 5245 5241 5237 5234 5232 5231 5229 5228 5226 5223 5219 5213 5206 5200 5193 5188 5182 5176 5168
5365 5360 5354 5349 5343 5337 5330 5324 5317 5309 5301 5294 5286 5278 5271 5264 5257 5251 5245 5240 5237 5234 5232 5230 5228 5227 5226 5224 5222 5218 5213 5207 5201 5195 5190 5185 5180 5173
5362 5357 5352 5347 5341 5335 5329 5322 5315 5307 5299 5291 5283 5275 5268 5260 5253 5247 5242 5237 5234 5231 5230 5229 5227 5227 5226 5224 5221 5217 5213 5209 5203 5198 5194 5189 5184 5179
5360 5356 5351 5346 5341 5334 5328 5321 5313 5305 5297 5289 5281 5273 5266 5258 5251 5245 5239 5235 5232 5231 5229 5229 5228 5227 5226 5224 5222 5218 5215 5211 5207 5202 5199 5194 5189 5185